STARLINK-6089 (56096 NORAD) Tracking and Keplerian Element Data

This shows tracking and keplerian element data for the satellite.

Feedback or suggestion? Click here.




ElementValue
Catalog56096
NameSTARLINK-6089
Epoch Orbit652
Epoch Day127.25001157
Epoch Year2023
RAAN37.9679
Inclination43.001
Eccentricity0.0001479
Argument of Perigee269.4462
Mean Anonmoly42.2266
Mean Motion15.27708252
Decay Rate-0.00911957
L11 56096U 23046D 23127.25001157 -.00911957 00000+0 -35565-1 0 9995
L22 56096 43.0010 37.9679 0001479 269.4462 42.2266 15.27708252 6525



Live tracking and technical data element details for STARLINK-6089 (NORAD 56096). STARLINK-6089 can be tracked NOW for your location showing map with azimuth and elevation plus other details from your city location.







IsCatalogInMostPopularTable: catalog: 56096, numindb: -1

Insert: records affected: 1


GetName: 56096 STARLINK-6089

Hit Count: inserted at: Sat, 03 Jun 2023 18:42:38 GMT